Notices

What's New in latest Release from April 7th, 2021:

- Updated Glossary, including Speed of Maximum Gust, and Total Hourly Precipitation

- Updated national and regional climate services offices contacts and prices information

- Addition of station inventory lists for 1981-2010, 1971-2000, and 1961-1990 Normals.

If you haven't already, please take our survey and provide feedback about our website: https://eccc.sondage-survey.ca/f/LanguageSelection.aspx?s=442ca660-fcf1-47c0-95a9-59707d6fd709

Hourly Data Report for December 10, 2020

MUSKOKA
ONTARIO
Current Station Operator: NAVCAN

44°58'29.000" N
79°18'12.000" W
281.90 m
6115529
71532
YQA

Download Data

Hourly Data (December 2020)
Hourly Data Report for December 10, 2020
TIME
LST
Temp Definition
°C
Dew Point Definition
°C
Rel Hum Definition
%
Precip. Amount Definition
mm

Wind Dir Definition
10's deg

Wind Spd Definition
km/h
Visibility Definition
km
Stn Press Definition
kPa
Hmdx Definition


Wind Chill Definition


Weather Definition


00:00 1.6 -2.0 77 LegendMM 34 15 16.1 97.62     LegendNANA
01:00 1.5 -2.1 77 LegendMM 32 9 16.1 97.68     LegendNANA
02:00 1.6 -1.6 80 LegendMM 31 11 16.1 97.77     LegendNANA
03:00 1.4 -2.0 78 LegendMM 31 13 16.1 97.87     LegendNANA
04:00 0.3 -2.4 82 LegendMM 30 9 16.1 97.91     LegendNANA
05:00 0.6 -2.0 83 LegendMM 28 5 16.1 97.99     LegendNANA
06:00 0.4 -2.0 84 LegendMM 32 8 16.1 98.08     LegendNANA
07:00 0.1 -1.7 88 LegendMM 30 5 16.1 98.21     LegendNANA
08:00 0.2 -2.0 85 LegendMM 32 11 16.1 98.29     LegendNANA
09:00 0.3 -2.6 81 LegendMM 36 8 16.1 98.31     LegendNANA
10:00 0.7 -2.9 77 LegendMM 3 5 16.1 98.37     LegendNANA
11:00 0.8 -2.8 77 LegendMM 34 4 16.1 98.45     LegendNANA
12:00 1.1 -2.5 77 LegendMM LegendMM 4 16.1 98.44     LegendNANA
13:00 1.7 -2.0 76 LegendMM 20 9 16.1 98.40     LegendNANA
14:00 2.0 -1.4 78 LegendMM 21 5 16.1 98.39     LegendNANA
15:00 1.9 -0.9 82 LegendMM 16 9 16.1 98.33     LegendNANA
16:00 1.9 -0.9 82 LegendMM 16 9 16.1 98.35     LegendNANA
17:00 1.8 -0.8 83 LegendMM 14 8 16.1 98.38     LegendNANA
18:00 1.4 -0.5 87 LegendMM 16 9 16.1 98.37     LegendNANA
19:00 1.4 -0.4 88 LegendMM 16 11 16.1 98.34     LegendNANA
20:00 1.5 -0.3 88 LegendMM 15 13 16.1 98.35     LegendNANA
21:00 1.3 -0.6 87 LegendMM 16 17 16.1 98.29     LegendNANA
22:00 1.5 -0.4 87 LegendMM 15 15 16.1 98.27     LegendNANA
23:00 1.1 -0.4 90 LegendMM 13 11 16.1 98.17     LegendNANA

Notes on Data Quality.

Legend

  • E = Estimated
  • M = Missing
  • NA = Not Available*
  • [empty] = Indicates an unobserved value
Date modified: